| time (UTC) | temp F | wind direction | speed knots | gust knots | rain 1hr in | rain 24hr in | rain mn in | humidity % | barometer mb |
| 20260507021104 | 54 | 114 | 1.7 | 3.5 | 0.00 | 0.00 | 0.00 | 88 | 999.2 |
| 20260507020105 | 53 | 135 | 0.0 | 1.7 | 0.00 | 0.00 | 0.00 | 95 | 999.1 |
| 20260507015603 | 53 | 151 | 0.0 | 1.7 | 0.00 | 0.00 | 0.00 | 96 | 999.2 |
| 20260507015103 | 53 | 173 | 0.0 | 3.5 | 0.00 | 0.00 | 0.00 | 96 | 999.1 |
| 20260507014603 | 53 | 173 | 1.7 | 3.5 | 0.00 | 0.00 | 0.00 | 97 | 999.1 |
| 20260507014104 | 53 | 192 | 2.6 | 5.2 | 0.00 | 0.00 | 0.00 | 98 | 999.1 |
| 20260507013602 | 53 | 213 | 3.5 | 5.2 | 0.00 | 0.00 | 0.00 | 98 | 999.0 |
| 20260507013103 | 53 | 206 | 3.5 | 3.5 | 0.00 | 0.00 | 0.00 | 97 | 999.2 |
| 20260507012100 | 53 | 224 | 2.6 | 3.5 | 0.00 | 0.00 | 0.00 | 96 | 999.1 |
| 20260507011558 | 53 | 108 | 1.7 | 5.2 | 0.00 | 0.00 | 0.00 | 95 | 998.9 |
| 20260507010557 | 53 | 90 | 2.6 | 3.5 | 0.00 | 0.00 | 0.00 | 96 | 998.9 |
| 20260507010057 | 53 | 265 | 0.0 | 3.5 | 0.00 | 0.00 | 0.00 | 97 | 998.9 |
| 20260507004557 | 53 | 237 | 1.7 | 5.2 | 0.00 | 0.00 | 0.00 | 97 | 998.9 |
| 20260507004057 | 53 | 233 | 2.6 | 5.2 | 0.00 | 0.00 | 0.00 | 96 | 998.8 |
| 20260507003557 | 55 | 154 | 3.5 | 5.2 | 0.00 | 0.00 | 0.00 | 92 | 998.6 |
| 20260507003057 | 55 | 96 | 0.0 | 3.5 | 0.00 | 0.00 | 0.00 | 90 | 998.5 |
| 20260507002056 | 54 | 89 | 1.7 | 3.5 | 0.00 | 0.00 | 0.00 | 91 | 998.4 |
| 20260507001057 | 53 | 90 | 0.0 | 9.6 | 0.00 | 0.00 | 0.00 | 94 | 998.2 |
| 20260507000556 | 53 | 90 | 7.0 | 9.6 | 0.00 | 0.00 | 0.00 | 95 | 998.1 |
| 20260507000058 | 53 | 84 | 7.0 | 9.6 | 0.00 | 0.00 | 0.00 | 95 | 997.7 |
| 20260506235556 | 53 | 62 | 3.5 | 5.2 | 0.00 | 0.00 | 0.00 | 95 | 997.8 |
| 20260506234556 | 53 | 343 | 2.6 | 7.0 | 0.00 | 0.00 | 0.00 | 96 | 998.1 |
| 20260506234056 | 53 | 338 | 4.3 | 7.0 | 0.00 | 0.00 | 0.00 | 97 | 998.2 |
| 20260506233555 | 53 | 12 | 1.7 | 7.0 | 0.00 | 0.00 | 0.00 | 97 | 997.9 |
| 20260506233056 | 53 | 341 | 0.0 | 7.0 | 0.00 | 0.00 | 0.00 | 97 | 998.0 |
| 20260506232555 | 53 | 313 | 5.2 | 7.0 | 0.00 | 0.00 | 0.00 | 97 | 998.1 |
| 20260506232057 | 52 | 310 | 1.7 | 7.0 | 0.00 | 0.00 | 0.00 | 97 | 998.2 |
| 20260506231556 | 52 | 310 | 1.7 | 7.0 | 0.00 | 0.00 | 0.00 | 97 | 998.3 |
| 20260506231056 | 52 | 302 | 4.3 | 7.0 | 0.00 | 0.00 | 0.00 | 97 | 998.2 |
| 20260506230556 | 52 | 302 | 3.5 | 7.0 | 0.00 | 0.00 | 0.00 | 97 | 998.5 |
| 20260506230056 | 52 | 299 | 1.7 | 9.6 | 0.00 | 0.00 | 0.00 | 97 | 998.3 |
| 20260506225556 | 52 | 287 | 3.5 | 9.6 | 0.00 | 0.00 | 0.00 | 97 | 998.4 |
| 20260506225055 | 52 | 272 | 7.0 | 9.6 | 0.00 | 0.00 | 0.00 | 96 | 998.4 |
| 20260506224556 | 52 | 264 | 8.7 | 9.6 | 0.00 | 0.00 | 0.00 | 95 | 998.5 |
| 20260506223555 | 53 | 273 | 6.1 | 9.6 | 0.00 | 0.00 | 0.00 | 93 | 998.2 |
| 20260506223056 | 54 | 255 | 3.5 | 7.0 | 0.00 | 0.00 | 0.00 | 94 | 997.9 |
| 20260506222055 | 55 | 283 | 5.2 | 7.0 | 0.00 | 0.00 | 0.00 | 91 | 997.8 |
| 20260506221554 | 56 | 303 | 2.6 | 5.2 | 0.00 | 0.00 | 0.00 | 90 | 997.6 |
| 20260506221055 | 56 | 311 | 1.7 | 3.5 | 0.00 | 0.00 | 0.00 | 89 | 997.5 |
| 20260506220556 | 58 | 165 | 1.7 | 3.5 | 0.00 | 0.00 | 0.00 | 86 | 997.4 |
| 20260506220057 | 59 | 150 | 0.0 | 5.2 | 0.00 | 0.00 | 0.00 | 80 | 997.2 |
| 20260506215554 | 59 | 144 | 0.9 | 5.2 | 0.00 | 0.00 | 0.00 | 79 | 997.1 |
| 20260506214554 | 58 | 153 | 0.0 | 3.5 | 0.00 | 0.00 | 0.00 | 83 | 996.9 |
| 20260506213554 | 57 | 108 | 0.9 | 1.7 | 0.00 | 0.00 | 0.00 | 84 | 996.8 |
| 20260506213054 | 57 | 94 | 0.9 | 3.5 | 0.00 | 0.00 | 0.00 | 84 | 996.8 |
| 20260506212555 | 57 | 129 | 0.0 | 3.5 | 0.00 | 0.00 | 0.00 | 85 | 996.8 |
| 20260506212055 | 57 | 131 | 0.9 | 5.2 | 0.00 | 0.00 | 0.00 | 84 | 996.9 |
| 20260506211554 | 57 | 125 | 1.7 | 5.2 | 0.00 | 0.00 | 0.00 | 84 | 996.8 |
| 20260506211055 | 57 | 122 | 0.9 | 5.2 | 0.00 | 0.00 | 0.00 | 84 | 996.8 |
| 20260506210554 | 57 | 99 | 3.5 | 5.2 | 0.00 | 0.00 | 0.00 | 85 | 996.3 |
| 20260506210056 | 57 | 87 | 2.6 | 6.1 | 0.00 | 0.00 | 0.00 | 84 | 996.8 |
| 20260506205554 | 57 | 90 | 3.5 | 6.1 | 0.00 | 0.00 | 0.00 | 84 | 996.8 |
| 20260506205055 | 57 | 117 | 3.5 | 6.1 | 0.00 | 0.00 | 0.00 | 84 | 996.7 |
| 20260506204555 | 57 | 121 | 0.9 | 6.1 | 0.00 | 0.00 | 0.00 | 85 | 996.9 |
| 20260506204054 | 57 | 110 | 1.7 | 6.1 | 0.00 | 0.00 | 0.00 | 84 | 997.0 |
| 20260506203554 | 57 | 127 | 3.5 | 3.5 | 0.00 | 0.00 | 0.00 | 84 | 996.7 |
| 20260506202554 | 57 | 102 | 1.7 | 6.1 | 0.00 | 0.00 | 0.00 | 84 | 996.8 |
| 20260506201554 | 57 | 108 | 1.7 | 3.5 | 0.00 | 0.00 | 0.00 | 84 | 996.8 |
| 20260506201054 | 56 | 99 | 3.5 | 7.0 | 0.00 | 0.00 | 0.00 | 85 | 996.8 |
| 20260506200554 | 57 | 90 | 1.7 | 7.8 | 0.00 | 0.00 | 0.00 | 84 | 996.8 |
| 20260506195553 | 57 | 93 | 4.3 | 9.6 | 0.00 | 0.00 | 0.00 | 83 | 996.9 |
| 20260506195053 | 58 | 92 | 6.1 | 9.6 | 0.00 | 0.00 | 0.00 | 82 | 996.7 |
| 20260506194554 | 57 | 86 | 4.3 | 7.8 | 0.00 | 0.00 | 0.00 | 82 | 996.7 |
| 20260506194053 | 57 | 86 | 1.7 | 7.8 | 0.00 | 0.00 | 0.00 | 81 | 996.7 |
| 20260506193553 | 57 | 95 | 7.0 | 7.8 | 0.00 | 0.00 | 0.00 | 82 | 997.0 |
| 20260506193055 | 57 | 50 | 0.9 | 6.1 | 0.00 | 0.00 | 0.00 | 83 | 997.0 |
| 20260506192554 | 57 | 10 | 1.7 | 7.0 | 0.00 | 0.00 | 0.00 | 83 | 996.9 |
| 20260506192054 | 57 | 46 | 1.7 | 7.0 | 0.00 | 0.00 | 0.00 | 85 | 997.2 |
| 20260506191554 | 57 | 100 | 0.9 | 6.1 | 0.00 | 0.00 | 0.00 | 86 | 997.1 |
| 20260506191054 | 57 | 112 | 1.7 | 5.2 | 0.00 | 0.00 | 0.00 | 86 | 997.2 |
| 20260506190553 | 57 | 292 | 1.7 | 3.5 | 0.00 | 0.00 | 0.00 | 87 | 997.1 |
| 20260506190054 | 57 | 292 | 1.7 | 3.5 | 0.00 | 0.00 | 0.00 | 87 | 997.2 |
| 20260506185553 | 57 | 304 | 1.7 | 6.1 | 0.00 | 0.00 | 0.00 | 87 | 997.1 |
| 20260506184552 | 57 | 336 | 2.6 | 13.0 | 0.00 | 0.00 | 0.00 | 88 | 997.2 |
| 20260506184054 | 57 | 345 | 6.1 | 13.0 | 0.00 | 0.00 | 0.00 | 88 | 997.0 |
| 20260506183553 | 57 | 359 | 2.6 | 9.6 | 0.00 | 0.00 | 0.00 | 87 | 996.8 |
| 20260506183053 | 57 | 327 | 2.6 | 12.2 | 0.00 | 0.00 | 0.00 | 89 | 996.9 |
| 20260506182554 | 57 | 314 | 1.7 | 17.4 | 0.00 | 0.00 | 0.00 | 89 | 996.8 |
| 20260506182054 | 61 | 318 | 8.7 | 17.4 | 0.00 | 0.00 | 0.00 | 84 | 996.8 |
| 20260506181553 | 61 | 336 | 4.3 | 6.1 | 0.00 | 0.00 | 0.00 | 76 | 996.8 |
| 20260506181054 | 61 | 343 | 1.7 | 3.5 | 0.00 | 0.00 | 0.00 | 76 | 996.3 |
| 20260506180554 | 61 | 39 | 1.7 | 3.5 | 0.00 | 0.00 | 0.00 | 76 | 996.3 |
| 20260506180054 | 61 | 75 | 0.0 | 3.5 | 0.00 | 0.00 | 0.00 | 75 | 996.2 |
| 20260506175553 | 62 | 90 | 0.0 | 3.5 | 0.00 | 0.00 | 0.00 | 73 | 996.1 |
| 20260506174553 | 63 | 90 | 1.7 | 5.2 | 0.00 | 0.00 | 0.00 | 71 | 996.0 |
| 20260506174053 | 63 | 90 | 1.7 | 5.2 | 0.00 | 0.00 | 0.00 | 71 | 996.1 |
| 20260506173552 | 63 | 85 | 3.5 | 5.2 | 0.00 | 0.00 | 0.00 | 71 | 996.1 |
| 20260506173053 | 62 | 86 | 1.7 | 5.2 | 0.00 | 0.00 | 0.00 | 72 | 996.1 |
| 20260506172553 | 62 | 90 | 3.5 | 6.1 | 0.00 | 0.00 | 0.00 | 73 | 996.1 |
| 20260506172052 | 62 | 93 | 3.5 | 6.1 | 0.00 | 0.00 | 0.00 | 73 | 996.1 |
| 20260506171553 | 62 | 88 | 3.5 | 6.1 | 0.00 | 0.00 | 0.00 | 73 | 996.0 |
| 20260506170552 | 62 | 349 | 1.7 | 6.1 | 0.00 | 0.00 | 0.00 | 72 | 996.1 |
| 20260506170053 | 61 | 337 | 3.5 | 6.1 | 0.00 | 0.00 | 0.00 | 76 | 996.1 |
| 20260506165553 | 61 | 338 | 3.5 | 6.1 | 0.00 | 0.00 | 0.00 | 76 | 996.1 |
| 20260506164553 | 62 | 315 | 8.7 | 14.8 | 0.00 | 0.00 | 0.00 | 77 | 996.4 |
| 20260506163552 | 62 | 291 | 8.7 | 17.4 | 0.00 | 0.00 | 0.00 | 77 | 996.4 |
| 20260506163052 | 68 | 197 | 7.0 | 13.9 | 0.00 | 0.00 | 0.00 | 60 | 996.3 |
| 20260506162552 | 68 | 154 | 9.6 | 15.6 | 0.00 | 0.00 | 0.00 | 56 | 996.5 |
| 20260506162053 | 68 | 156 | 12.2 | 18.2 | 0.00 | 0.00 | 0.00 | 55 | 996.3 |
| 20260506161552 | 68 | 151 | 11.3 | 18.2 | 0.00 | 0.00 | 0.00 | 56 | 996.1 |
| 20260506161053 | 68 | 145 | 13.9 | 18.2 | 0.00 | 0.00 | 0.00 | 55 | 996.1 |
| 20260506160552 | 68 | 151 | 13.9 | 21.7 | 0.00 | 0.00 | 0.00 | 56 | 996.0 |
| 20260506160052 | 68 | 154 | 13.9 | 21.7 | 0.00 | 0.00 | 0.00 | 56 | 996.3 |
| 20260506155552 | 68 | 155 | 11.3 | 20.0 | 0.00 | 0.00 | 0.00 | 56 | 996.5 |
| 20260506155053 | 68 | 151 | 9.6 | 17.4 | 0.00 | 0.00 | 0.00 | 56 | 996.6 |
| 20260506154552 | 68 | 150 | 10.4 | 14.8 | 0.00 | 0.00 | 0.00 | 57 | 996.8 |
| 20260506154051 | 68 | 154 | 9.6 | 14.8 | 0.00 | 0.00 | 0.00 | 56 | 996.5 |
| 20260506153552 | 68 | 155 | 8.7 | 15.6 | 0.00 | 0.00 | 0.00 | 55 | 996.6 |
| 20260506153051 | 68 | 150 | 7.0 | 15.6 | 0.00 | 0.00 | 0.00 | 56 | 996.7 |
| 20260506152552 | 68 | 143 | 7.8 | 13.0 | 0.00 | 0.00 | 0.00 | 54 | 996.9 |
| 20260506152052 | 68 | 147 | 8.7 | 13.9 | 0.00 | 0.00 | 0.00 | 54 | 997.0 |
| 20260506151552 | 68 | 164 | 9.6 | 13.9 | 0.00 | 0.00 | 0.00 | 53 | 997.0 |
| 20260506151051 | 68 | 164 | 10.4 | 13.9 | 0.00 | 0.00 | 0.00 | 52 | 997.0 |
| 20260506150551 | 68 | 160 | 6.1 | 12.2 | 0.00 | 0.00 | 0.00 | 53 | 997.1 |
| 20260506145551 | 68 | 159 | 7.0 | 9.6 | 0.00 | 0.00 | 0.00 | 51 | 997.2 |
| 20260506145052 | 68 | 163 | 4.3 | 9.6 | 0.00 | 0.00 | 0.00 | 52 | 997.1 |
| 20260506144551 | 68 | 165 | 3.5 | 7.8 | 0.00 | 0.00 | 0.00 | 53 | 997.2 |
| 20260506144051 | 68 | 148 | 1.7 | 7.8 | 0.00 | 0.00 | 0.00 | 53 | 997.2 |
| 20260506143051 | 68 | 155 | 0.9 | 6.1 | 0.00 | 0.00 | 0.00 | 54 | 997.3 |
| 20260506142051 | 68 | 158 | 1.7 | 11.3 | 0.00 | 0.00 | 0.00 | 53 | 997.4 |
| 20260506141551 | 68 | 154 | 6.1 | 11.3 | 0.00 | 0.00 | 0.00 | 52 | 997.4 |
| 20260506141052 | 68 | 148 | 3.5 | 7.8 | 0.00 | 0.00 | 0.00 | 53 | 997.6 |
| 20260506140552 | 68 | 155 | 2.6 | 7.0 | 0.00 | 0.00 | 0.00 | 53 | 997.5 |
| 20260506135550 | 68 | 159 | 5.2 | 7.8 | 0.00 | 0.00 | 0.00 | 55 | 997.7 |
| 20260506135050 | 68 | 146 | 4.3 | 7.8 | 0.00 | 0.00 | 0.00 | 55 | 997.7 |
| 20260506134052 | 68 | 160 | 4.3 | 9.6 | 0.00 | 0.00 | 0.00 | 54 | 998.0 |
| 20260506133550 | 68 | 161 | 5.2 | 9.6 | 0.00 | 0.00 | 0.00 | 53 | 997.9 |
| 20260506133051 | 68 | 150 | 7.0 | 9.6 | 0.00 | 0.00 | 0.00 | 52 | 998.0 |
| 20260506132051 | 68 | 162 | 2.6 | 9.6 | 0.00 | 0.00 | 0.00 | 52 | 998.0 |
| 20260506131550 | 68 | 176 | 6.1 | 13.9 | 0.00 | 0.00 | 0.00 | 51 | 998.3 |
| 20260506130551 | 70 | 178 | 8.7 | 13.0 | 0.00 | 0.00 | 0.00 | 48 | 998.1 |
| 20260506130051 | 69 | 189 | 7.0 | 12.2 | 0.00 | 0.00 | 0.00 | 51 | 998.2 |
| 20260506125550 | 69 | 220 | 3.5 | 7.0 | 0.00 | 0.00 | 0.00 | 50 | 998.2 |
| 20260506124550 | 69 | 177 | 5.2 | 11.3 | 0.00 | 0.00 | 0.00 | 50 | 998.5 |
| 20260506123551 | 69 | 232 | 2.6 | 6.1 | 0.00 | 0.00 | 0.00 | 52 | 998.5 |
| 20260506123050 | 70 | 212 | 1.7 | 6.1 | 0.00 | 0.00 | 0.00 | 52 | 998.5 |
| 20260506122549 | 69 | 213 | 3.5 | 6.1 | 0.00 | 0.00 | 0.00 | 51 | 998.7 |
| 20260506122049 | 69 | 221 | 1.7 | 5.2 | 0.00 | 0.00 | 0.00 | 51 | 998.7 |
| 20260506121550 | 68 | 222 | 3.5 | 5.2 | 0.00 | 0.00 | 0.00 | 52 | 998.7 |
| 20260506121050 | 67 | 230 | 2.6 | 3.5 | 0.00 | 0.00 | 0.00 | 55 | 998.8 |
| 20260506120549 | 67 | 223 | 2.6 | 5.2 | 0.00 | 0.00 | 0.00 | 58 | 998.8 |
| 20260506120050 | 67 | 213 | 2.6 | 5.2 | 0.00 | 0.00 | 0.00 | 55 | 998.7 |
| 20260506115550 | 67 | 193 | 1.7 | 7.0 | 0.00 | 0.00 | 0.00 | 55 | 998.9 |
| 20260506115049 | 67 | 195 | 1.7 | 7.0 | 0.00 | 0.00 | 0.00 | 57 | 999.0 |
| 20260506114549 | 67 | 201 | 6.1 | 7.8 | 0.00 | 0.00 | 0.00 | 53 | 998.9 |
| 20260506114050 | 68 | 207 | 3.5 | 9.6 | 0.00 | 0.00 | 0.00 | 54 | 998.9 |
| 20260506113549 | 67 | 221 | 3.5 | 9.6 | 0.00 | 0.00 | 0.00 | 55 | 998.9 |
| 20260506113049 | 68 | 230 | 5.2 | 9.6 | 0.00 | 0.00 | 0.00 | 54 | 998.9 |
| 20260506112550 | 67 | 234 | 3.5 | 9.6 | 0.00 | 0.00 | 0.00 | 54 | 998.9 |
| 20260506112049 | 68 | 219 | 6.1 | 11.3 | 0.00 | 0.00 | 0.00 | 53 | 999.1 |
| 20260506111550 | 67 | 212 | 5.2 | 11.3 | 0.00 | 0.00 | 0.00 | 55 | 999.0 |
| 20260506111049 | 67 | 204 | 4.3 | 9.6 | 0.00 | 0.00 | 0.00 | 55 | 999.2 |
| 20260506110549 | 68 | 216 | 4.3 | 9.6 | 0.00 | 0.00 | 0.00 | 58 | 998.9 |
| 20260506110049 | 67 | 254 | 3.5 | 7.0 | 0.00 | 0.00 | 0.00 | 59 | 999.0 |
| 20260506105050 | 66 | 262 | 3.5 | 6.1 | 0.00 | 0.00 | 0.00 | 59 | 999.3 |
| 20260506104549 | 65 | 238 | 3.5 | 7.0 | 0.00 | 0.00 | 0.00 | 58 | 999.4 |
| 20260506103549 | 66 | 267 | 4.3 | 11.3 | 0.00 | 0.00 | 0.00 | 60 | 999.4 |
| 20260506103050 | 65 | 270 | 7.0 | 11.3 | 0.00 | 0.00 | 0.00 | 60 | 999.5 |
| 20260506102548 | 65 | 252 | 7.0 | 11.3 | 0.00 | 0.00 | 0.00 | 60 | 999.3 |
| 20260506102048 | 65 | 223 | 3.5 | 7.8 | 0.00 | 0.00 | 0.00 | 58 | 999.5 |
| 20260506101049 | 65 | 261 | 3.5 | 7.8 | 0.00 | 0.00 | 0.00 | 61 | 999.3 |
| 20260506100548 | 64 | 247 | 4.3 | 9.6 | 0.00 | 0.00 | 0.00 | 61 | 999.5 |
| 20260506100049 | 64 | 240 | 7.0 | 9.6 | 0.00 | 0.00 | 0.00 | 62 | 999.4 |
| 20260506095548 | 64 | 248 | 4.3 | 9.6 | 0.00 | 0.00 | 0.00 | 65 | 999.5 |
| 20260506095049 | 63 | 232 | 6.1 | 9.6 | 0.00 | 0.00 | 0.00 | 66 | 999.5 |
| 20260506094549 | 63 | 208 | 3.5 | 9.6 | 0.00 | 0.00 | 0.00 | 66 | 999.5 |
| 20260506093548 | 63 | 228 | 7.0 | 9.6 | 0.00 | 0.00 | 0.00 | 66 | 999.5 |
| 20260506093048 | 64 | 224 | 3.5 | 9.6 | 0.00 | 0.00 | 0.00 | 68 | 999.7 |
| 20260506092548 | 63 | 246 | 5.2 | 9.6 | 0.00 | 0.00 | 0.00 | 65 | 999.5 |
| 20260506092048 | 62 | 277 | 4.3 | 7.8 | 0.00 | 0.00 | 0.00 | 69 | 999.6 |
| 20260506091049 | 62 | 249 | 1.7 | 9.6 | 0.00 | 0.00 | 0.00 | 69 | 999.6 |
| 20260506090548 | 62 | 240 | 4.3 | 9.6 | 0.00 | 0.00 | 0.00 | 71 | 999.5 |
| 20260506090049 | 62 | 240 | 3.5 | 9.6 | 0.00 | 0.00 | 0.00 | 71 | 999.5 |
| 20260506085549 | 61 | 261 | 4.3 | 9.6 | 0.00 | 0.00 | 0.00 | 72 | 999.5 |
| 20260506085049 | 61 | 264 | 3.5 | 9.6 | 0.00 | 0.00 | 0.00 | 73 | 999.4 |
| 20260506083548 | 60 | 274 | 4.3 | 9.6 | 0.00 | 0.00 | 0.00 | 77 | 999.5 |
| 20260506082549 | 60 | 270 | 5.2 | 7.0 | 0.00 | 0.00 | 0.00 | 74 | 999.6 |
| 20260506081548 | 58 | 292 | 7.0 | 9.6 | 0.00 | 0.00 | 0.00 | 78 | 999.5 |
| 20260506073048 | 58 | 292 | 8.7 | 12.2 | 0.00 | 0.00 | 0.00 | 80 | 999.4 |
| 20260506072547 | 58 | 292 | 8.7 | 12.2 | 0.00 | 0.00 | 0.00 | 80 | 999.6 |
| 20260506071547 | 58 | 274 | 7.0 | 12.2 | 0.00 | 0.00 | 0.00 | 79 | 999.5 |
| 20260506071047 | 58 | 270 | 7.8 | 11.3 | 0.00 | 0.00 | 0.00 | 81 | 999.4 |
| 20260506070547 | 57 | 268 | 7.8 | 13.0 | 0.00 | 0.00 | 0.00 | 82 | 999.5 |
| 20260506062047 | 56 | 267 | 7.8 | 12.2 | 0.00 | 0.00 | 0.00 | 88 | 999.5 |
| 20260506061547 | 56 | 267 | 6.1 | 12.2 | 0.00 | 0.00 | 0.00 | 89 | 999.4 |
| 20260506061048 | 56 | 266 | 4.3 | 9.6 | 0.00 | 0.00 | 0.00 | 91 | 999.3 |
| 20260506060546 | 55 | 263 | 5.2 | 7.8 | 0.00 | 0.00 | 0.00 | 91 | 999.1 |
| 20260506051047 | 53 | 219 | 0.9 | 3.5 | 0.00 | 0.00 | 0.00 | 99 | 998.7 |
| 20260506050546 | 53 | 216 | 1.7 | 3.5 | 0.00 | 0.00 | 0.00 | 99 | 998.6 |
| 20260506044546 | 53 | 213 | 1.7 | 3.5 | 0.00 | 0.00 | 0.00 | 99 | 998.8 |
| 20260506044046 | 53 | 208 | 1.7 | 1.7 | 0.00 | 0.00 | 0.00 | 99 | 998.6 |
| 20260506043545 | 53 | 208 | 1.7 | 1.7 | 0.00 | 0.00 | 0.00 | 99 | 998.7 |
| 20260506043046 | 53 | 219 | 1.7 | 3.5 | 0.00 | 0.00 | 0.00 | 99 | 998.8 |
| 20260506042545 | 52 | 237 | 1.7 | 3.5 | 0.00 | 0.00 | 0.00 | 99 | 998.6 |
| 20260506042045 | 53 | 248 | 1.7 | 3.5 | 0.00 | 0.00 | 0.00 | 99 | 998.5 |
| 20260506041546 | 53 | 244 | 1.7 | 3.5 | 0.00 | 0.00 | 0.00 | 99 | 998.5 |
| 20260506041045 | 53 | 234 | 1.7 | 3.5 | 0.00 | 0.00 | 0.00 | 99 | 998.2 |
| 20260506040544 | 53 | 225 | 0.9 | 1.7 | 0.00 | 0.00 | 0.00 | 99 | 998.1 |
| 20260506040047 | 52 | 225 | 0.0 | 1.7 | 0.00 | 0.00 | 0.00 | 99 | 998.3 |
| 20260506035545 | 53 | 225 | 1.7 | 1.7 | 0.00 | 0.00 | 0.00 | 99 | 998.3 |
| 20260506035046 | 52 | 224 | 0.9 | 1.7 | 0.00 | 0.00 | 0.00 | 99 | 998.2 |
| 20260506034545 | 52 | 219 | 0.0 | 3.5 | 0.00 | 0.00 | 0.00 | 99 | 998.0 |
| 20260506034045 | 52 | 224 | 1.7 | 5.2 | 0.00 | 0.00 | 0.00 | 99 | 998.0 |
| 20260506033546 | 52 | 233 | 1.7 | 5.2 | 0.00 | 0.00 | 0.00 | 99 | 998.2 |
| 20260506033045 | 53 | 241 | 3.5 | 5.2 | 0.00 | 0.00 | 0.00 | 99 | 998.2 |
| 20260506032546 | 53 | 242 | 3.5 | 6.1 | 0.00 | 0.00 | 0.00 | 99 | 998.1 |
| 20260506032046 | 53 | 234 | 2.6 | 6.1 | 0.00 | 0.00 | 0.00 | 99 | 998.3 |
| 20260506031545 | 52 | 227 | 3.5 | 5.2 | 0.00 | 0.00 | 0.00 | 99 | 998.1 |
| 20260506031045 | 52 | 219 | 2.6 | 6.1 | 0.00 | 0.00 | 0.00 | 99 | 998.1 |
| 20260506030545 | 52 | 216 | 3.5 | 6.1 | 0.00 | 0.00 | 0.00 | 99 | 998.0 |
| 20260506030045 | 52 | 216 | 3.5 | 6.1 | 0.00 | 0.00 | 0.00 | 99 | 998.1 |
| 20260506025045 | 53 | 222 | 3.5 | 3.5 | 0.00 | 0.00 | 0.00 | 98 | 997.9 |
| 20260506024544 | 53 | 224 | 2.6 | 3.5 | 0.00 | 0.00 | 0.00 | 98 | 997.8 |
| 20260506024045 | 53 | 224 | 1.7 | 3.5 | 0.00 | 0.00 | 0.00 | 97 | 997.7 |
| 20260506023544 | 53 | 223 | 1.7 | 3.5 | 0.00 | 0.00 | 0.00 | 97 | 997.8 |
| 20260506023044 | 53 | 224 | 1.7 | 3.5 | 0.00 | 0.00 | 0.00 | 97 | 997.8 |
| 20260506022546 | 53 | 227 | 1.7 | 3.5 | 0.00 | 0.00 | 0.00 | 96 | 997.6 |
| 20260506022044 | 53 | 234 | 1.7 | 5.2 | 0.00 | 0.00 | 0.00 | 96 | 997.6 |